| time (UTC) | temp C | wind direction | speed KPH | gust KPH | rain 1hr cm | rain 24hr cm | rain mn cm | humidity % | barometer mb |
| 20260831211602 | 37 | 171 | 1.6 | 11.3 | 0.00 | 0.00 | 0.00 | 59 | 1016.6 |
| 20260831210055 | 36 | 153 | 1.6 | 16.1 | 0.00 | 0.00 | 0.00 | 63 | 1016.6 |
| 20260831204554 | 36 | 211 | 3.2 | 11.3 | 0.00 | 0.00 | 0.00 | 63 | 1016.7 |
| 20260831203044 | 36 | 258 | 3.2 | 9.7 | 0.00 | 0.00 | 0.00 | 63 | 1016.7 |
| 20260831201539 | 36 | 354 | 1.6 | 14.5 | 0.00 | 0.00 | 0.00 | 63 | 1017.1 |
| 20260831200033 | 36 | 144 | 0.0 | 16.1 | 0.00 | 0.00 | 0.00 | 64 | 1017.3 |
| 20260831194529 | 36 | 240 | 1.6 | 9.7 | 0.00 | 0.00 | 0.00 | 65 | 1017.4 |
| 20260831193030 | 35 | 298 | 1.6 | 12.9 | 0.00 | 0.00 | 0.00 | 65 | 1017.4 |
| 20260831191515 | 35 | 259 | 0.0 | 9.7 | 0.00 | 0.00 | 0.00 | 66 | 1017.5 |
| 20260831190010 | 35 | 268 | 6.4 | 17.7 | 0.00 | 0.00 | 0.00 | 66 | 1017.7 |
| 20260831184503 | 35 | 221 | 3.2 | 9.7 | 0.00 | 0.00 | 0.00 | 68 | 1017.9 |
| 20260831183104 | 35 | 348 | 4.8 | 11.3 | 0.00 | 0.00 | 0.00 | 67 | 1018.0 |
| 20260831181608 | 34 | 246 | 3.2 | 9.7 | 0.00 | 0.00 | 0.00 | 67 | 1018.2 |
| 20260831180045 | 33 | 191 | 1.6 | 9.7 | 0.00 | 0.00 | 0.00 | 69 | 1018.5 |
| 20260831174539 | 34 | 353 | 1.6 | 9.7 | 0.00 | 0.00 | 0.00 | 69 | 1018.7 |
| 20260831173034 | 33 | 332 | 3.2 | 11.3 | 0.00 | 0.00 | 0.00 | 69 | 1018.8 |
| 20260831171528 | 33 | 270 | 3.2 | 11.3 | 0.00 | 0.00 | 0.00 | 70 | 1019.1 |
| 20260831170124 | 32 | 22 | 3.2 | 14.5 | 0.00 | 0.00 | 0.00 | 71 | 1019.3 |
| 20260831164520 | 32 | 2 | 3.2 | 22.5 | 0.00 | 0.00 | 0.00 | 71 | 1019.4 |
| 20260831163016 | 32 | 274 | 3.2 | 16.1 | 0.00 | 0.00 | 0.00 | 70 | 1019.4 |
| 20260831161517 | 32 | 240 | 4.8 | 12.9 | 0.00 | 0.00 | 0.00 | 70 | 1019.3 |
| 20260831160013 | 31 | 336 | 1.6 | 8.0 | 0.00 | 0.00 | 0.00 | 71 | 1019.4 |
| 20260831154613 | 31 | 327 | 1.6 | 9.7 | 0.00 | 0.00 | 0.00 | 73 | 1019.5 |
| 20260831153059 | 30 | 324 | 3.2 | 12.9 | 0.00 | 0.00 | 0.00 | 73 | 1019.4 |
| 20260831151556 | 30 | 256 | 4.8 | 9.7 | 0.00 | 0.00 | 0.00 | 72 | 1019.4 |
| 20260831144553 | 29 | 310 | 4.8 | 14.5 | 0.00 | 0.00 | 0.00 | 74 | 1019.4 |
| 20260831143044 | 28 | 288 | 1.6 | 14.5 | 0.00 | 0.00 | 0.00 | 75 | 1019.1 |
| 20260831141538 | 28 | 238 | 3.2 | 9.7 | 0.00 | 0.00 | 0.00 | 75 | 1019.3 |
| 20260831140035 | 27 | 265 | 0.0 | 4.8 | 0.00 | 0.00 | 0.00 | 76 | 1019.3 |
| 20260831134532 | 26 | 182 | 0.0 | 4.8 | 0.00 | 0.00 | 0.00 | 77 | 1019.2 |
| 20260831133024 | 25 | 161 | 3.2 | 8.0 | 0.00 | 0.00 | 0.00 | 78 | 1019.1 |
| 20260831131537 | 24 | 149 | 0.0 | 4.8 | 0.00 | 0.00 | 0.00 | 81 | 1019.1 |
| 20260831130032 | 23 | 156 | 3.2 | 6.4 | 0.00 | 0.00 | 0.00 | 81 | 1019.0 |
| 20260831124518 | 22 | 157 | 1.6 | 4.8 | 0.00 | 0.00 | 0.00 | 82 | 1019.0 |
| 20260831123021 | 22 | 166 | 3.2 | 6.4 | 0.00 | 0.00 | 0.00 | 83 | 1018.8 |
| 20260831121512 | 21 | 163 | 3.2 | 4.8 | 0.00 | 0.00 | 0.00 | 84 | 1018.5 |
| 20260831120009 | -17 | 0.0 | 0.0 | 0.00 | 0.00 | 0.00 | 1018.3 | ||
| 20260831114559 | -17 | 0.0 | 0.0 | 0.00 | 0.00 | 0.00 | 1018.2 | ||
| 20260831113058 | -17 | 0.0 | 0.0 | 0.00 | 0.00 | 0.00 | 1018.2 | ||
| 20260831111552 | -17 | 0.0 | 0.0 | 0.00 | 0.00 | 0.00 | 1018.0 | ||
| 20260831110043 | -17 | 0.0 | 0.0 | 0.00 | 0.00 | 0.00 | 1018.1 | ||
| 20260831104539 | -17 | 0.0 | 0.0 | 0.00 | 0.00 | 0.00 | 1018.1 | ||
| 20260831103033 | 22 | 192 | 4.8 | 8.0 | 0.00 | 0.00 | 0.00 | 82 | 1017.9 |
| 20260831101530 | 21 | 161 | 4.8 | 8.0 | 0.00 | 0.00 | 0.00 | 83 | 1017.9 |
| 20260831100041 | 22 | 152 | 3.2 | 8.0 | 0.00 | 0.00 | 0.00 | 83 | 1017.9 |
| 20260831094534 | 21 | 163 | 0.0 | 3.2 | 0.00 | 0.00 | 0.00 | 84 | 1017.9 |
| 20260831093042 | 21 | 156 | 0.0 | 3.2 | 0.00 | 0.00 | 0.00 | 86 | 1017.9 |
| 20260831091524 | 20 | 165 | 0.0 | 0.0 | 0.00 | 0.00 | 0.00 | 87 | 1017.8 |
| 20260831090020 | 21 | 165 | 0.0 | 0.0 | 0.00 | 0.00 | 0.00 | 87 | 1017.7 |
| 20260831084513 | 21 | 165 | 0.0 | 0.0 | 0.00 | 0.00 | 0.00 | 85 | 1017.6 |
| 20260831083011 | 22 | 165 | 0.0 | 3.2 | 0.00 | 0.00 | 0.00 | 83 | 1017.5 |
| 20260831081510 | 22 | 160 | 0.0 | 4.8 | 0.00 | 0.00 | 0.00 | 84 | 1017.3 |
| 20260831080005 | 22 | 163 | 0.0 | 1.6 | 0.00 | 0.00 | 0.00 | 85 | 1017.2 |
| 20260831074503 | 22 | 166 | 0.0 | 1.6 | 0.00 | 0.00 | 0.00 | 84 | 1017.3 |
| 20260831073057 | 23 | 166 | 0.0 | 3.2 | 0.00 | 0.00 | 0.00 | 82 | 1017.4 |
| 20260831071554 | 23 | 141 | 3.2 | 6.4 | 0.00 | 0.00 | 0.00 | 81 | 1017.5 |
| 20260831070049 | 23 | 162 | 3.2 | 8.0 | 0.00 | 0.00 | 0.00 | 80 | 1017.5 |
| 20260831064545 | 24 | 162 | 1.6 | 6.4 | 0.00 | 0.00 | 0.00 | 79 | 1017.6 |
| 20260831063042 | 24 | 164 | 3.2 | 11.3 | 0.00 | 0.00 | 0.00 | 78 | 1017.7 |
| 20260831061542 | 24 | 154 | 4.8 | 9.7 | 0.00 | 0.00 | 0.00 | 78 | 1017.8 |
| 20260831060038 | 24 | 153 | 0.0 | 4.8 | 0.00 | 0.00 | 0.00 | 78 | 1017.8 |
| 20260831054533 | 24 | 139 | 1.6 | 4.8 | 0.00 | 0.00 | 0.00 | 78 | 1017.7 |
| 20260831053034 | 25 | 168 | 4.8 | 9.7 | 0.00 | 0.00 | 0.00 | 77 | 1017.8 |
| 20260831051532 | 25 | 160 | 4.8 | 9.7 | 0.00 | 0.00 | 0.00 | 76 | 1017.6 |
| 20260831050024 | 25 | 157 | 1.6 | 4.8 | 0.00 | 0.00 | 0.00 | 77 | 1017.6 |
| 20260831044532 | 25 | 174 | 3.2 | 9.7 | 0.00 | 0.00 | 0.00 | 77 | 1017.5 |
| 20260831043021 | 25 | 160 | 0.0 | 4.8 | 0.00 | 0.00 | 0.00 | 77 | 1017.3 |
| 20260831041527 | 25 | 159 | 1.6 | 6.4 | 0.00 | 0.00 | 0.00 | 77 | 1017.4 |
| 20260831040020 | 26 | 145 | 3.2 | 9.7 | 0.00 | 0.00 | 0.00 | 77 | 1017.3 |
| 20260831034512 | 26 | 154 | 6.4 | 11.3 | 0.00 | 0.00 | 0.00 | 77 | 1017.2 |
| 20260831033018 | 26 | 171 | 6.4 | 12.9 | 0.00 | 0.00 | 0.00 | 78 | 1017.3 |
| 20260831031508 | 26 | 188 | 4.8 | 11.3 | 0.00 | 0.00 | 0.00 | 78 | 1017.2 |
| 20260831030006 | 26 | 156 | 1.6 | 8.0 | 0.00 | 0.00 | 0.00 | 78 | 1017.2 |
| 20260831024503 | 27 | 200 | 1.6 | 8.0 | 0.00 | 0.00 | 0.00 | 77 | 1017.3 |
| 20260831023006 | 27 | 187 | 3.2 | 9.7 | 0.00 | 0.00 | 0.00 | 77 | 1017.1 |
| 20260831021502 | 27 | 144 | 3.2 | 8.0 | 0.00 | 0.00 | 0.00 | 77 | 1017.1 |
| 20260831020100 | 27 | 166 | 3.2 | 8.0 | 0.00 | 0.00 | 0.00 | 76 | 1017.0 |
| 20260831014558 | 28 | 173 | 3.2 | 11.3 | 0.00 | 0.00 | 0.00 | 75 | 1017.0 |
| 20260831013056 | 28 | 178 | 1.6 | 12.9 | 0.00 | 0.00 | 0.00 | 74 | 1016.8 |
| 20260831011557 | 28 | 145 | 3.2 | 8.0 | 0.00 | 0.00 | 0.00 | 73 | 1016.6 |
| 20260831004549 | 29 | 169 | 3.2 | 6.4 | 0.00 | 0.00 | 0.00 | 72 | 1016.4 |
| 20260831003045 | 30 | 190 | 0.0 | 4.8 | 0.00 | 0.00 | 0.00 | 71 | 1016.4 |
| 20260831001544 | 30 | 186 | 1.6 | 8.0 | 0.00 | 0.00 | 0.00 | 71 | 1016.5 |
| 20260831000043 | 31 | 178 | 3.2 | 6.4 | 0.00 | 0.00 | 0.00 | 70 | 1016.4 |
| 20260830234539 | 31 | 263 | 4.8 | 11.3 | 0.00 | 0.00 | 0.00 | 69 | 1016.5 |
| 20260830233040 | 32 | 176 | 4.8 | 16.1 | 0.00 | 0.00 | 0.00 | 68 | 1016.7 |
| 20260830231535 | 33 | 162 | 3.2 | 11.3 | 0.00 | 0.00 | 0.00 | 65 | 1016.7 |
| 20260830230033 | 33 | 185 | 4.8 | 12.9 | 0.00 | 0.00 | 0.00 | 64 | 1016.6 |
| 20260830224530 | 33 | 262 | 6.4 | 14.5 | 0.00 | 0.00 | 0.00 | 63 | 1016.5 |
| 20260830223033 | 34 | 204 | 1.6 | 12.9 | 0.00 | 0.00 | 0.00 | 61 | 1016.5 |
| 20260830221626 | 35 | 199 | 3.2 | 12.9 | 0.00 | 0.00 | 0.00 | 61 | 1016.5 |
| 20260830220024 | 35 | 163 | 1.6 | 6.4 | 0.00 | 0.00 | 0.00 | 61 | 1016.4 |
| 20260830214522 | 35 | 160 | 4.8 | 11.3 | 0.00 | 0.00 | 0.00 | 60 | 1016.4 |
| 20260830213016 | 35 | 261 | 3.2 | 9.7 | 0.00 | 0.00 | 0.00 | 60 | 1016.5 |